OSCAR 29 [?]

Last updated on Tue Jun 27 2023 00:03:36 GMT+0000 (Coordinated Universal Time)

1 18362U 87080B 23177.41823573 .00000074 00000+0 11220-3 0 9995 2 18362 90.3466 47.2161 0104372 304.7136 229.5907 13.44215295754390
UTC large
Height (km)
Speed (km/s)
/
Latitude / Longitude
Inclination (degrees)
Orbital Period (minutes)
Azimuth
Elevation
Range (km)
Doppler Factor

Next 0 passes for location: London (51.5072 / 0.1276)

Sorry there are no passes over London.